QPF
0.00 0.00 0.00 0.00 0.00 0.00 0.00 0.00 0.00 0.00 0.00 0.00 0.00 0.00 0.00 0.00 0.01 0.01 0.01 0.01 0.01 0.01 0.01 0.01 0.02 0.03 0.03 0.05 0.07 0.07 0.06 0.05 0.04 0.04 0.04 0.04 0.05 0.07 0.07 0.06 0.06 0.05 0.05 0.03
0.00 0.00 0.00 0.00 0.00 0.00 0.00 0.00 0.00 0.00 0.00 0.00 0.01 0.01 0.01 0.01 0.00 0.01 0.01 0.01 0.01 0.01 0.02 0.02 0.02 0.03 0.03 0.05 0.07 0.09 0.08 0.07 0.06 0.05 0.06 0.05 0.06 0.06 0.06 0.06 0.06 0.05 0.04 0.03
0.00 0.00 0.00 0.00 0.00 0.00 0.00 0.00 0.00 0.00 0.00 0.00 0.01 0.01 0.01 0.01 0.01 0.01 0.01 0.01 0.01 0.02 0.03 0.03 0.03 0.03 0.04 0.05 0.06 0.08 0.08 0.08 0.07 0.05 0.05 0.05 0.05 0.05 0.06 0.06 0.04 0.04 0.03 0.03
0.00 0.00 0.00 0.00 0.00 0.00 0.00 0.00 0.00 0.00 0.00 0.01 0.01 0.01 0.01 0.01 0.01 0.01 0.01 0.01 0.02 0.02 0.04 0.04 0.02 0.02 0.02 0.03 0.03 0.05 0.06 0.06 0.06 0.06 0.04 0.03 0.03 0.03 0.03 0.03 0.02 0.02 0.02 0.02
0.00 0.00 0.00 0.00 0.00 0.00 0.00 0.00 0.00 0.00 0.00 0.01 0.01 0.01 0.01 0.01 0.01 0.01 0.01 0.02 0.02 0.02 0.02 0.02 0.02 0.01 0.01 0.01 0.02 0.03 0.03 0.04 0.04 0.04 0.03 0.03 0.02 0.02 0.02 0.01 0.01 0.01 0.01 0.01
0.00 0.00 0.00 0.00 0.00 0.00 0.00 0.00 0.00 0.00 0.00 0.00 0.01 0.01 0.01 0.01 0.01 0.01 0.02 0.02 0.02 0.01 0.02 0.02 0.01 0.01 0.01 0.00 0.01 0.01 0.02 0.02 0.02 0.02 0.02 0.02 0.02 0.02 0.02 0.01 0.01 0.02 0.02 0.02
0.00 0.00 0.00 0.00 0.00 0.00 0.00 0.00 0.00 0.00 0.00 0.00 0.00 0.00 0.01 0.01 0.02 0.01 0.01 0.01 0.01 0.01 0.01 0.01 0.01 0.01 0.01 0.00 0.00 0.01 0.01 0.02 0.02 0.02 0.02 0.02 0.02 0.02 0.02 0.02 0.02 0.02 0.02 0.02
0.00 0.00 0.00 0.00 0.00 0.00 0.00 0.00 0.00 0.00 0.00 0.01 0.01 0.01 0.01 0.01 0.01 0.01 0.01 0.01 0.01 0.01 0.01 0.01 0.01 0.01 0.01 0.00 0.00 0.00 0.01 0.01 0.02 0.01 0.01 0.02 0.02 0.02 0.02 0.02 0.03 0.02 0.02 0.02
0.00 0.00 0.00 0.00 0.00 0.00 0.00 0.00 0.00 0.00 0.00 0.01 0.01 0.02 0.02 0.02 0.01 0.01 0.01 0.01 0.01 0.02 0.01 0.01 0.01 0.01 0.01 0.01 0.01 0.01 0.01 0.01 0.01 0.02 0.01 0.01 0.02 0.02 0.02 0.02 0.02 0.02 0.02 0.01
0.01 0.01 0.01 0.00 0.00 0.00 0.00 0.00 0.01 0.01 0.01 0.02 0.02 0.02 0.02 0.02 0.01 0.01 0.01 0.01 0.01 0.01 0.01 0.00 0.01 0.00 0.00 0.01 0.01 0.01 0.01 0.02 0.02 0.02 0.02 0.02 0.02 0.02 0.02 0.01 0.01 0.01 0.01 0.01
0.01 0.02 0.01 0.01 0.01 0.01 0.01 0.01 0.01 0.02 0.02 0.03 0.02 0.02 0.01 0.01 0.01 0.01 0.01 0.01 0.01 0.01 0.01 0.00 0.00 0.00 0.00 0.00 0.01 0.01 0.01 0.01 0.02 0.01 0.02 0.02 0.01 0.02 0.02 0.02 0.02 0.02 0.01 0.01
0.01 0.01 0.01 0.02 0.02 0.01 0.01 0.02 0.02 0.02 0.02 0.02 0.02 0.02 0.01 0.01 0.02 0.01 0.01 0.01 0.01 0.01 0.00 0.00 0.00 0.00 0.00 0.00 0.00 0.01 0.01 0.01 0.01 0.01 0.01 0.01 0.01 0.01 0.02 0.02 0.02 0.02 0.02 0.02
0.01 0.01 0.02 0.02 0.02 0.01 0.01 0.01 0.02 0.02 0.02 0.03 0.03 0.03 0.03 0.03 0.02 0.02 0.02 0.01 0.01 0.01 0.01 0.00 0.00 0.00 0.00 0.00 0.00 0.00 0.01 0.01 0.01 0.01 0.02 0.02 0.02 0.01 0.01 0.02 0.02 0.02 0.02 0.02
0.01 0.01 0.02 0.02 0.02 0.01 0.01 0.01 0.01 0.01 0.01 0.02 0.01 0.01 0.01 0.01 0.01 0.01 0.01 0.00 0.00 0.00 0.01 0.01 0.01 0.00 0.00 0.00 0.01 0.01 0.01 0.01 0.01 0.01 0.01 0.01 0.01 0.01 0.01 0.02 0.02 0.02 0.03 0.03
0.00 0.01 0.02 0.03 0.04 0.03 0.02 0.02 0.01 0.01 0.01 0.01 0.01 0.01 0.01 0.01 0.01 0.01 0.00 0.00 0.00 0.00 0.01 0.01 0.01 0.00 0.00 0.01 0.01 0.01 0.01 0.01 0.01 0.01 0.01 0.01 0.01 0.01 0.02 0.02 0.02 0.03 0.03 0.02
0.00 0.01 0.01 0.01 0.01 0.02 0.02 0.02 0.01 0.01 0.01 0.01 0.01 0.01 0.01 0.01 0.01 0.01 0.01 0.01 0.01 0.00 0.00 0.00 0.00 0.00 0.01 0.01 0.01 0.00 0.00 0.00 0.00 0.01 0.01 0.01 0.01 0.01 0.02 0.03 0.03 0.03 0.03 0.02
0.01 0.01 0.01 0.00 0.01 0.01 0.01 0.01 0.01 0.01 0.01 0.01 0.01 0.02 0.02 0.01 0.01 0.01 0.01 0.01 0.01 0.00 0.00 0.00 0.00 0.00 0.01 0.01 0.01 0.01 0.01 0.00 0.00 0.01 0.01 0.01 0.02 0.02 0.02 0.03 0.03 0.03 0.03 0.03
0.02 0.02 0.01 0.01 0.01 0.01 0.01 0.00 0.00 0.00 0.00 0.00 0.01 0.01 0.01 0.01 0.01 0.00 0.01 0.00 0.00 0.00 0.00 0.00 0.00 0.01 0.01 0.01 0.01 0.01 0.01 0.01 0.01 0.01 0.02 0.02 0.03 0.02 0.03 0.03 0.03 0.03 0.03 0.02
0.02 0.02 0.01 0.01 0.01 0.01 0.00 0.01 0.01 0.01 0.00 0.00 0.00 0.00 0.00 0.00 0.00 0.00 0.00 0.00 0.00 0.01 0.01 0.00 0.00 0.00 0.00 0.01 0.01 0.01 0.01 0.01 0.01 0.02 0.02 0.02 0.03 0.03 0.04 0.04 0.04 0.03 0.03 0.03
0.02 0.02 0.01 0.01 0.01 0.01 0.01 0.01 0.01 0.01 0.01 0.01 0.01 0.01 0.00 0.00 0.00 0.00 0.00 0.00 0.00 0.01 0.01 0.01 0.01 0.01 0.01 0.01 0.02 0.02 0.02 0.02 0.02 0.02 0.02 0.02 0.03 0.05 0.05 0.03 0.03 0.03 0.03 0.04
0.03 0.02 0.02 0.01 0.01 0.01 0.01 0.01 0.02 0.02 0.02 0.01 0.01 0.00 0.00 0.00 0.00 0.00 0.01 0.01 0.01 0.01 0.01 0.02 0.02 0.03 0.04 0.04 0.04 0.04 0.03 0.03 0.03 0.04 0.03 0.03 0.04 0.04 0.03 0.02 0.02 0.03 0.04 0.05
0.02 0.02 0.02 0.01 0.01 0.01 0.01 0.03 0.04 0.03 0.01 0.01 0.01 0.01 0.01 0.01 0.01 0.01 0.01 0.02 0.01 0.01 0.02 0.03 0.05 0.05 0.04 0.04 0.05 0.05 0.04 0.04 0.05 0.06 0.07 0.06 0.05 0.04 0.04 0.04 0.04 0.04 0.05 0.05
0.01 0.01 0.01 0.01 0.02 0.02 0.03 0.03 0.03 0.02 0.01 0.01 0.01 0.01 0.01 0.01 0.01 0.01 0.01 0.01 0.01 0.02 0.04 0.05 0.03 0.02 0.03 0.07 0.08 0.06 0.04 0.05 0.06 0.06 0.07 0.07 0.06 0.06 0.06 0.06 0.06 0.06 0.05 0.05
0.01 0.01 0.01 0.02 0.02 0.02 0.02 0.02 0.03 0.03 0.02 0.02 0.01 0.01 0.01 0.01 0.01 0.01 0.01 0.01 0.03 0.03 0.04 0.03 0.02 0.02 0.04 0.06 0.08 0.07 0.06 0.06 0.07 0.07 0.07 0.07 0.07 0.06 0.06 0.06 0.05 0.05 0.05 0.05
0.01 0.01 0.02 0.03 0.03 0.03 0.02 0.02 0.03 0.03 0.02 0.02 0.02 0.01 0.01 0.01 0.00 0.00 0.01 0.02 0.04 0.05 0.04 0.02 0.03 0.02 0.03 0.03 0.05 0.06 0.06 0.05 0.07 0.08 0.07 0.07 0.07 0.06 0.05 0.05 0.06 0.06 0.06 0.06
0.01 0.01 0.03 0.05 0.04 0.03 0.03 0.03 0.04 0.05 0.04 0.03 0.02 0.02 0.01 0.01 0.01 0.01 0.01 0.03 0.04 0.05 0.04 0.03 0.04 0.04 0.03 0.03 0.04 0.05 0.06 0.06 0.07 0.07 0.06 0.06 0.05 0.05 0.04 0.04 0.05 0.05 0.05 0.05
0.01 0.02 0.04 0.05 0.03 0.03 0.03 0.03 0.04 0.06 0.07 0.05 0.04 0.03 0.03 0.02 0.02 0.03 0.03 0.05 0.06 0.06 0.05 0.05 0.06 0.06 0.05 0.05 0.05 0.06 0.07 0.07 0.08 0.06 0.05 0.05 0.05 0.05 0.04 0.04 0.04 0.04 0.03 0.03
MSLP
1012.32 1012.16 1012.08 1012.07 1012.10 1012.14 1012.11 1011.97 1011.68 1011.23 1010.64 1009.94 1009.22 1008.54 1007.97 1007.56 1007.34 1007.31 1007.44 1007.70 1008.04 1008.40 1008.77 1009.12 1009.45 1009.77 1010.10 1010.45 1010.82 1011.21 1011.60 1011.97 1012.30 1012.57 1012.77 1012.90 1012.98 1013.04 1013.09 1013.16 1013.26 1013.39 1013.55 1013.70
1012.62 1012.36 1012.12 1011.92 1011.74 1011.55 1011.33 1011.05 1010.69 1010.23 1009.69 1009.09 1008.48 1007.91 1007.40 1007.01 1006.76 1006.64 1006.64 1006.76 1006.95 1007.20 1007.50 1007.83 1008.20 1008.59 1009.02 1009.48 1009.95 1010.43 1010.88 1011.30 1011.64 1011.92 1012.12 1012.25 1012.34 1012.42 1012.50 1012.60 1012.73 1012.89 1013.06 1013.22
1012.94 1012.61 1012.26 1011.90 1011.55 1011.20 1010.84 1010.45 1010.02 1009.56 1009.05 1008.51 1007.96 1007.44 1006.95 1006.54 1006.21 1005.97 1005.83 1005.79 1005.84 1005.98 1006.20 1006.51 1006.89 1007.35 1007.86 1008.42 1008.99 1009.56 1010.08 1010.54 1010.92 1011.21 1011.43 1011.58 1011.70 1011.80 1011.91 1012.04 1012.20 1012.38 1012.56 1012.73
1013.27 1012.89 1012.47 1012.01 1011.55 1011.09 1010.63 1010.17 1009.70 1009.22 1008.73 1008.22 1007.70 1007.18 1006.68 1006.20 1005.77 1005.40 1005.11 1004.91 1004.82 1004.84 1004.98 1005.25 1005.63 1006.12 1006.69 1007.32 1007.96 1008.59 1009.17 1009.67 1010.09 1010.42 1010.67 1010.86 1011.01 1011.15 1011.30 1011.46 1011.64 1011.84 1012.03 1012.20
1013.59 1013.18 1012.70 1012.20 1011.68 1011.16 1010.64 1010.15 1009.66 1009.18 1008.69 1008.19 1007.67 1007.13 1006.59 1006.04 1005.51 1005.01 1004.58 1004.23 1004.00 1003.90 1003.94 1004.15 1004.49 1004.97 1005.55 1006.20 1006.87 1007.54 1008.15 1008.69 1009.15 1009.52 1009.82 1010.06 1010.26 1010.45 1010.63 1010.83 1011.03 1011.24 1011.44 1011.61
1013.83 1013.39 1012.89 1012.37 1011.83 1011.29 1010.77 1010.27 1009.78 1009.31 1008.83 1008.33 1007.80 1007.25 1006.66 1006.04 1005.43 1004.82 1004.27 1003.79 1003.43 1003.21 1003.15 1003.26 1003.53 1003.95 1004.48 1005.10 1005.76 1006.41 1007.04 1007.60 1008.09 1008.50 1008.85 1009.15 1009.41 1009.66 1009.89 1010.12 1010.35 1010.57 1010.77 1010.95
1013.93 1013.46 1012.96 1012.43 1011.91 1011.39 1010.89 1010.41 1009.95 1009.49 1009.03 1008.54 1008.02 1007.45 1006.83 1006.18 1005.50 1004.82 1004.17 1003.59 1003.12 1002.79 1002.61 1002.60 1002.76 1003.07 1003.51 1004.05 1004.64 1005.25 1005.84 1006.40 1006.91 1007.37 1007.77 1008.14 1008.47 1008.78 1009.07 1009.34 1009.60 1009.84 1010.05 1010.24
1013.81 1013.32 1012.82 1012.32 1011.83 1011.35 1010.89 1010.46 1010.04 1009.62 1009.18 1008.72 1008.21 1007.65 1007.04 1006.37 1005.67 1004.95 1004.25 1003.60 1003.04 1002.60 1002.31 1002.16 1002.18 1002.35 1002.65 1003.06 1003.54 1004.06 1004.60 1005.14 1005.66 1006.15 1006.61 1007.04 1007.44 1007.81 1008.17 1008.49 1008.79 1009.05 1009.28 1009.49
1013.44 1012.95 1012.46 1011.99 1011.54 1011.12 1010.72 1010.35 1009.98 1009.60 1009.21 1008.79 1008.32 1007.79 1007.20 1006.55 1005.86 1005.15 1004.44 1003.75 1003.13 1002.60 1002.19 1001.91 1001.77 1001.77 1001.91 1002.16 1002.50 1002.91 1003.38 1003.87 1004.38 1004.89 1005.39 1005.89 1006.36 1006.80 1007.22 1007.60 1007.94 1008.24 1008.51 1008.75
1012.82 1012.32 1011.86 1011.44 1011.05 1010.69 1010.36 1010.05 1009.74 1009.42 1009.08 1008.71 1008.28 1007.80 1007.26 1006.67 1006.03 1005.34 1004.65 1003.96 1003.30 1002.71 1002.20 1001.79 1001.50 1001.33 1001.29 1001.38 1001.57 1001.85 1002.22 1002.66 1003.14 1003.66 1004.20 1004.74 1005.27 1005.78 1006.25 1006.69 1007.08 1007.42 1007.73 1008.02
1011.98 1011.50 1011.08 1010.71 1010.39 1010.10 1009.84 1009.59 1009.34 1009.08 1008.79 1008.46 1008.09 1007.67 1007.20 1006.67 1006.10 1005.48 1004.83 1004.16 1003.50 1002.87 1002.29 1001.77 1001.35 1001.03 1000.83 1000.75 1000.79 1000.95 1001.22 1001.58 1002.03 1002.53 1003.08 1003.66 1004.23 1004.79 1005.31 1005.79 1006.23 1006.63 1006.99 1007.34
1010.98 1010.54 1010.17 1009.87 1009.62 1009.41 1009.21 1009.02 1008.82 1008.60 1008.36 1008.07 1007.76 1007.39 1006.99 1006.54 1006.04 1005.50 1004.92 1004.30 1003.67 1003.03 1002.41 1001.83 1001.31 1000.87 1000.53 1000.31 1000.22 1000.26 1000.43 1000.71 1001.10 1001.58 1002.11 1002.69 1003.28 1003.86 1004.42 1004.94 1005.43 1005.87 1006.28 1006.68
1009.90 1009.52 1009.23 1009.00 1008.83 1008.68 1008.55 1008.40 1008.24 1008.05 1007.83 1007.58 1007.30 1006.99 1006.64 1006.26 1005.84 1005.39 1004.88 1004.34 1003.75 1003.14 1002.52 1001.91 1001.34 1000.82 1000.39 1000.07 999.88 999.81 999.88 1000.08 1000.40 1000.83 1001.33 1001.88 1002.46 1003.04 1003.61 1004.16 1004.67 1005.15 1005.61 1006.06
1008.82 1008.52 1008.31 1008.16 1008.06 1007.97 1007.88 1007.77 1007.63 1007.45 1007.24 1007.00 1006.74 1006.46 1006.16 1005.85 1005.50 1005.12 1004.70 1004.24 1003.72 1003.17 1002.59 1002.00 1001.41 1000.87 1000.39 1000.01 999.74 999.59 999.58 999.70 999.94 1000.29 1000.73 1001.23 1001.77 1002.33 1002.89 1003.44 1003.97 1004.48 1004.98 1005.48
1007.80 1007.58 1007.45 1007.38 1007.34 1007.30 1007.24 1007.15 1007.01 1006.83 1006.61 1006.36 1006.10 1005.83 1005.56 1005.29 1005.00 1004.70 1004.36 1003.98 1003.56 1003.08 1002.57 1002.03 1001.48 1000.96 1000.48 1000.07 999.76 999.56 999.48 999.52 999.69 999.96 1000.32 1000.75 1001.23 1001.74 1002.26 1002.80 1003.33 1003.87 1004.40 1004.93
1006.87 1006.73 1006.68 1006.67 1006.67 1006.67 1006.62 1006.52 1006.37 1006.16 1005.92 1005.65 1005.37 1005.10 1004.84 1004.59 1004.35 1004.10 1003.84 1003.55 1003.21 1002.83 1002.41 1001.95 1001.48 1001.00 1000.56 1000.17 999.85 999.62 999.50 999.48 999.57 999.76 1000.03 1000.38 1000.79 1001.24 1001.73 1002.24 1002.77 1003.31 1003.87 1004.43
1006.03 1005.96 1005.96 1006.00 1006.04 1006.04 1005.99 1005.87 1005.69 1005.45 1005.17 1004.86 1004.56 1004.26 1004.00 1003.76 1003.54 1003.34 1003.14 1002.92 1002.68 1002.39 1002.07 1001.71 1001.33 1000.94 1000.56 1000.21 999.91 999.68 999.54 999.48 999.50 999.62 999.82 1000.09 1000.43 1000.82 1001.26 1001.75 1002.27 1002.83 1003.40 1004.00
1005.27 1005.26 1005.30 1005.36 1005.40 1005.39 1005.32 1005.17 1004.96 1004.67 1004.35 1004.00 1003.66 1003.33 1003.05 1002.80 1002.60 1002.43 1002.27 1002.11 1001.94 1001.75 1001.53 1001.27 1000.99 1000.69 1000.39 1000.11 999.85 999.65 999.50 999.41 999.40 999.46 999.60 999.81 1000.09 1000.44 1000.85 1001.32 1001.84 1002.40 1003.01 1003.63
1004.59 1004.60 1004.65 1004.70 1004.73 1004.70 1004.59 1004.41 1004.14 1003.82 1003.45 1003.06 1002.68 1002.33 1002.02 1001.76 1001.55 1001.39 1001.26 1001.14 1001.03 1000.91 1000.77 1000.61 1000.42 1000.22 1000.00 999.79 999.59 999.42 999.29 999.20 999.18 999.21 999.31 999.48 999.73 1000.05 1000.44 1000.91 1001.44 1002.03 1002.66 1003.32
1003.96 1003.97 1004.00 1004.03 1004.02 1003.94 1003.79 1003.56 1003.26 1002.89 1002.49 1002.07 1001.66 1001.28 1000.94 1000.66 1000.44 1000.28 1000.15 1000.06 999.99 999.91 999.84 999.74 999.63 999.51 999.37 999.23 999.09 998.97 998.87 998.81 998.78 998.81 998.91 999.07 999.31 999.63 1000.03 1000.51 1001.06 1001.68 1002.35 1003.05
1003.38 1003.36 1003.34 1003.32 1003.25 1003.13 1002.93 1002.65 1002.31 1001.92 1001.48 1001.04 1000.61 1000.20 999.85 999.55 999.31 999.13 999.00 998.91 998.85 998.80 998.76 998.72 998.66 998.60 998.53 998.45 998.37 998.29 998.24 998.20 998.21 998.26 998.36 998.54 998.80 999.14 999.56 1000.07 1000.66 1001.31 1002.02 1002.76
1002.84 1002.75 1002.68 1002.58 1002.45 1002.26 1002.01 1001.69 1001.31 1000.89 1000.44 999.99 999.54 999.13 998.76 998.44 998.18 997.98 997.83 997.73 997.66 997.62 997.60 997.57 997.55 997.53 997.51 997.48 997.45 997.42 997.41 997.42 997.46 997.55 997.69 997.91 998.20 998.57 999.03 999.58 1000.21 1000.90 1001.64 1002.41
1002.31 1002.15 1001.99 1001.82 1001.60 1001.34 1001.03 1000.67 1000.26 999.83 999.36 998.90 998.45 998.03 997.65 997.32 997.05 996.83 996.66 996.53 996.45 996.40 996.37 996.36 996.36 996.36 996.36 996.37 996.39 996.41 996.44 996.50 996.60 996.73 996.92 997.18 997.52 997.94 998.44 999.03 999.70 1000.42 1001.19 1001.99
1001.78 1001.54 1001.28 1001.01 1000.71 1000.37 1000.00 999.60 999.16 998.70 998.23 997.77 997.32 996.90 996.51 996.17 995.88 995.64 995.45 995.31 995.21 995.14 995.11 995.10 995.10 995.12 995.16 995.20 995.25 995.32 995.40 995.52 995.66 995.85 996.10 996.41 996.80 997.27 997.82 998.44 999.14 999.88 1000.67 1001.48
1001.22 1000.88 1000.52 1000.15 999.76 999.35 998.91 998.45 997.98 997.50 997.02 996.55 996.10 995.68 995.29 994.94 994.64 994.39 994.19 994.03 993.92 993.84 993.80 993.80 993.82 993.86 993.92 994.00 994.09 994.21 994.35 994.52 994.73 994.98 995.29 995.66 996.10 996.61 997.20 997.85 998.56 999.32 1000.11 1000.92
1000.59 1000.15 999.69 999.23 998.74 998.24 997.74 997.23 996.71 996.20 995.70 995.22 994.76 994.34 993.95 993.60 993.30 993.04 992.84 992.68 992.57 992.50 992.47 992.48 992.53 992.60 992.70 992.83 992.98 993.16 993.36 993.60 993.87 994.19 994.56 994.99 995.48 996.04 996.65 997.32 998.04 998.80 999.58 1000.36
999.86 999.33 998.78 998.22 997.65 997.07 996.50 995.92 995.36 994.82 994.29 993.79 993.32 992.89 992.50 992.15 991.85 991.61 991.41 991.27 991.18 991.14 991.14 991.19 991.28 991.41 991.57 991.76 991.98 992.23 992.51 992.82 993.17 993.56 994.00 994.49 995.03 995.62 996.26 996.94 997.65 998.39 999.14 999.89
Thickness
5759 5768 5771 5773 5774 5771 5768 5762 5756 5766 5772 5789 5799 5803 5807 5808 5807 5806 5806 5807 5806 5805 5803 5802 5800 5798 5796 5793 5790 5787 5782 5778 5775 5773 5771 5769 5766 5764 5761 5759 5757 5755 5753 5750
5752 5761 5765 5765 5770 5771 5771 5769 5768 5773 5776 5796 5800 5802 5802 5803 5803 5802 5803 5804 5804 5803 5800 5798 5797 5795 5792 5789 5786 5783 5778 5774 5773 5771 5768 5765 5763 5760 5758 5756 5754 5752 5750 5747
5730 5746 5753 5745 5763 5767 5769 5773 5772 5769 5781 5793 5793 5795 5796 5798 5799 5800 5801 5802 5800 5799 5798 5796 5794 5793 5789 5786 5782 5777 5773 5771 5769 5767 5764 5762 5760 5756 5753 5752 5749 5747 5745 5743
5717 5730 5721 5746 5771 5772 5769 5772 5777 5780 5784 5787 5790 5793 5796 5797 5796 5796 5797 5797 5796 5795 5794 5793 5791 5788 5786 5782 5777 5773 5770 5768 5766 5763 5760 5757 5754 5752 5749 5747 5745 5743 5741 5739
5701 5707 5719 5744 5762 5764 5760 5761 5773 5774 5778 5782 5785 5786 5786 5793 5794 5794 5794 5794 5793 5791 5789 5787 5785 5783 5780 5776 5772 5769 5766 5764 5762 5759 5755 5752 5749 5747 5745 5742 5740 5738 5736 5734
5695 5701 5703 5734 5759 5767 5759 5747 5768 5770 5770 5772 5774 5764 5773 5787 5788 5789 5789 5788 5786 5785 5782 5779 5777 5776 5772 5768 5766 5764 5763 5761 5758 5755 5752 5748 5745 5742 5740 5737 5735 5733 5731 5729
5692 5697 5710 5739 5752 5757 5733 5740 5761 5764 5765 5765 5764 5768 5775 5780 5780 5781 5781 5781 5780 5777 5774 5773 5771 5768 5764 5762 5761 5761 5759 5756 5753 5750 5747 5744 5740 5737 5734 5731 5729 5727 5725 5724
5683 5689 5702 5736 5740 5735 5736 5749 5754 5757 5759 5759 5762 5766 5768 5770 5771 5771 5771 5771 5771 5768 5766 5765 5764 5761 5758 5756 5757 5755 5752 5749 5746 5744 5742 5740 5734 5731 5728 5725 5722 5720 5718 5717
5691 5698 5714 5725 5730 5736 5738 5740 5745 5748 5751 5753 5753 5754 5756 5758 5760 5761 5762 5761 5762 5759 5757 5757 5756 5754 5751 5751 5750 5747 5744 5741 5739 5737 5735 5733 5729 5725 5722 5719 5717 5714 5712 5710
5690 5700 5710 5717 5723 5728 5733 5735 5740 5743 5744 5746 5745 5746 5746 5747 5749 5750 5751 5752 5751 5750 5749 5748 5747 5746 5745 5744 5742 5739 5735 5733 5731 5730 5728 5725 5722 5720 5716 5713 5711 5708 5706 5704
5683 5693 5701 5709 5714 5718 5723 5728 5731 5734 5736 5736 5736 5737 5738 5738 5738 5739 5740 5740 5741 5740 5739 5739 5738 5737 5737 5735 5733 5730 5728 5726 5723 5721 5719 5717 5715 5713 5711 5710 5707 5704 5702 5700
5678 5688 5688 5696 5705 5711 5713 5716 5719 5721 5723 5726 5727 5726 5727 5727 5728 5728 5728 5729 5729 5729 5729 5729 5729 5728 5728 5727 5725 5722 5719 5717 5715 5712 5710 5708 5706 5705 5704 5703 5701 5698 5697 5695
5682 5687 5687 5692 5697 5702 5703 5706 5710 5711 5712 5712 5715 5717 5716 5716 5716 5716 5717 5718 5718 5718 5719 5719 5719 5719 5719 5718 5716 5713 5710 5709 5707 5704 5702 5699 5697 5695 5695 5695 5693 5691 5689 5687
5677 5679 5679 5683 5687 5692 5695 5698 5700 5701 5702 5703 5704 5705 5705 5705 5706 5706 5707 5708 5709 5709 5709 5709 5708 5709 5710 5708 5706 5704 5702 5701 5699 5697 5694 5692 5690 5689 5688 5687 5685 5683 5681 5679
5670 5673 5673 5676 5679 5682 5685 5687 5688 5689 5691 5692 5693 5694 5694 5694 5695 5697 5698 5699 5699 5698 5698 5698 5698 5699 5700 5698 5696 5694 5693 5691 5690 5688 5686 5685 5683 5681 5679 5678 5677 5676 5674 5673
5663 5665 5666 5667 5669 5672 5674 5676 5676 5677 5680 5682 5682 5683 5684 5685 5686 5687 5688 5688 5687 5687 5688 5688 5688 5689 5689 5688 5686 5684 5682 5682 5680 5679 5677 5676 5674 5672 5671 5670 5669 5668 5667 5666
5653 5654 5657 5658 5661 5663 5665 5667 5668 5670 5671 5672 5674 5675 5674 5674 5675 5676 5677 5678 5678 5678 5678 5678 5679 5680 5679 5678 5675 5674 5673 5672 5671 5670 5668 5667 5666 5665 5664 5663 5661 5661 5660 5659
5652 5654 5655 5655 5655 5656 5658 5659 5661 5662 5663 5665 5665 5665 5664 5664 5665 5666 5667 5667 5666 5666 5667 5668 5668 5668 5668 5667 5666 5664 5662 5662 5660 5659 5659 5658 5657 5656 5655 5654 5653 5652 5652 5650
5647 5648 5649 5650 5650 5650 5651 5652 5653 5654 5656 5656 5656 5656 5656 5657 5657 5658 5657 5656 5655 5655 5657 5659 5658 5657 5656 5656 5655 5653 5652 5652 5651 5650 5649 5648 5647 5647 5647 5646 5644 5643 5642 5641
5641 5642 5643 5644 5645 5644 5644 5645 5646 5646 5647 5648 5648 5648 5647 5648 5648 5648 5646 5645 5646 5648 5650 5649 5648 5647 5647 5647 5646 5644 5643 5643 5642 5642 5640 5639 5639 5639 5638 5637 5637 5636 5634 5633
5633 5635 5636 5636 5636 5637 5638 5638 5639 5639 5640 5640 5640 5639 5639 5639 5639 5637 5636 5636 5640 5640 5640 5639 5638 5638 5638 5637 5637 5636 5635 5635 5633 5632 5631 5631 5631 5631 5630 5630 5629 5629 5627 5625
5626 5627 5628 5629 5628 5628 5629 5630 5631 5632 5632 5633 5633 5632 5631 5631 5630 5629 5629 5629 5632 5632 5631 5630 5630 5630 5629 5628 5627 5627 5627 5626 5625 5624 5623 5623 5623 5623 5623 5622 5622 5621 5620 5618
5619 5620 5620 5620 5620 5620 5621 5622 5623 5624 5625 5625 5625 5625 5624 5624 5623 5621 5621 5624 5624 5624 5623 5623 5622 5622 5620 5620 5620 5619 5619 5619 5618 5618 5618 5617 5616 5615 5614 5614 5614 5613 5612 5610
5612 5612 5613 5613 5613 5613 5614 5615 5616 5617 5618 5618 5619 5618 5618 5616 5616 5616 5616 5617 5616 5616 5615 5615 5614 5613 5613 5613 5613 5613 5613 5612 5611 5611 5610 5609 5608 5607 5606 5606 5605 5604 5602 5601
5606 5606 5606 5606 5606 5607 5608 5609 5610 5611 5611 5611 5612 5612 5612 5611 5610 5611 5610 5610 5609 5608 5608 5608 5608 5607 5607 5607 5607 5607 5607 5606 5605 5603 5602 5601 5600 5599 5598 5598 5596 5595 5594 5593
5601 5600 5601 5601 5601 5602 5602 5603 5603 5603 5603 5603 5604 5605 5605 5605 5605 5604 5603 5603 5602 5602 5602 5602 5602 5602 5602 5602 5601 5601 5600 5599 5597 5595 5595 5594 5593 5592 5591 5590 5589 5588 5586 5585
5596 5596 5596 5596 5597 5597 5597 5597 5597 5597 5597 5597 5597 5597 5597 5597 5597 5597 5597 5597 5596 5596 5597 5597 5597 5597 5596 5596 5595 5594 5593 5592 5590 5589 5587 5586 5585 5584 5583 5582 5581 5579 5578 5576